College Park, MD

5:11 PM EDT on August 19, 2017 (GMT -0400)
College Park

Weather History for KCGS - March, 2013

Change the Weather History Date:

Wednesday, March 6, 2013

  Actual Average Record
Temperature  
Mean Temperature 38 °F -  
Max Temperature 41 °F 52 °F 80 °F (1961)
Min Temperature 34 °F 34 °F 10 °F (2015)
Degree Days  
Heating Degree Days 28    
Moisture  
Dew Point 36 °F    
Average Humidity 93    
Maximum Humidity 100    
Minimum Humidity 73    
Precipitation  
Precipitation 0.00 in - - ()
Sea Level Pressure  
Sea Level Pressure 29.76 in    
Wind  
Wind Speed 10 mph (North)    
Max Wind Speed 21 mph    
Max Gust Speed 33 mph    
Visibility 7 miles    
Events      
Averages and records for this station are not official NWS values.
T = Trace of Precipitation, MM = Missing Value Source: NWS Daily Summary

Daily Weather History Graph

Daily Weather History Graph

Search for Another Location

Airport or City:

Trip Planner

Search our weather history database for the weather conditions in past years. The results will help you decide how hot, cold, wet, or windy it might be!

Date:

Astronomy

Mar. 06, 2013 Rise Set
Actual Time 6:32 AM EST 6:05 PM EST
Civil Twilight 6:05 AM EST 6:32 PM EST
Nautical Twilight 5:34 AM EST 7:03 PM EST
Astronomical Twilight 5:03 AM EST 7:34 PM EST
Moon 2:37 AM EST (3/6) 12:47 PM EST (3/6)
Length of Visible Light 12h 26m
Length of Day
11h 33m
Waning Crescent, 30% of the Moon is Illuminated
Mar 6
Waning Crescent
Mar 11
New
Mar 19
First Quarter
Mar 27
Full
Apr 3
Last Quarter

Hourly Weather History & Observations

Time (EST) Temp. Windchill Dew Point Humidity Pressure Visibility Wind Dir Wind Speed Gust Speed Precip Events Conditions
12:05 AM 39.4 °F 33.8 °F 32.9 °F 78% 29.84 in 10.0 mi East 8.1 mph 17.3 mph N/A   Overcast
12:25 AM 38.7 °F 32.9 °F 33.1 °F 80% 29.82 in 10.0 mi East 8.1 mph 17.3 mph N/A   Overcast
12:45 AM 37.4 °F 32.1 °F 34.3 °F 89% 29.80 in 7.0 mi ENE 6.9 mph - N/A   Overcast
1:05 AM 36.5 °F 31.0 °F 34.9 °F 94% 29.79 in 5.0 mi East 6.9 mph - N/A   Overcast
1:25 AM 35.6 °F 30.7 °F 35.1 °F 98% 29.78 in 3.0 mi ENE 5.8 mph - N/A   Overcast
2:05 AM 34.9 °F 29.9 °F 34.9 °F 100% 29.74 in 2.5 mi NE 5.8 mph - N/A   Overcast
2:25 AM 35.1 °F 30.1 °F 35.1 °F 100% 29.73 in 3.0 mi ENE 5.8 mph - N/A   Overcast
2:45 AM 35.2 °F 28.8 °F 35.2 °F 100% 29.72 in 3.0 mi ENE 8.1 mph - N/A   Overcast
3:05 AM 35.2 °F 31.2 °F 35.2 °F 100% 29.72 in 2.5 mi NE 4.6 mph - N/A   Overcast
3:25 AM 34.9 °F 28.3 °F 34.9 °F 100% 29.69 in 2.5 mi NE 8.1 mph - N/A   Overcast
3:45 AM 35.2 °F 28.1 °F 35.2 °F 100% 29.67 in 5.0 mi NE 9.2 mph 16.1 mph N/A   Overcast
4:05 AM 35.6 °F 29.2 °F 35.6 °F 100% 29.66 in 7.0 mi NE 8.1 mph 16.1 mph N/A   Overcast
4:25 AM 35.8 °F 30.1 °F 35.8 °F 100% 29.66 in 7.0 mi ENE 6.9 mph - N/A   Overcast
4:45 AM 35.6 °F 28.0 °F 35.6 °F 100% 29.66 in 4.0 mi NE 10.4 mph - N/A   Overcast
5:45 AM 36.0 °F 29.0 °F 36.0 °F 100% 29.65 in 10.0 mi NE 9.2 mph - N/A   Overcast
6:05 AM 36.0 °F 28.0 °F 36.0 °F 100% 29.64 in 7.0 mi NNE 11.5 mph - N/A   Overcast
6:20 AM 36.0 °F 28.5 °F 36.0 °F 100% 29.63 in 7.0 mi NNE 10.4 mph 16.1 mph N/A   Overcast
6:45 AM 36.5 °F 29.7 °F 36.5 °F 100% 29.63 in 5.0 mi NE 9.2 mph 20.7 mph N/A   Overcast
7:05 AM 36.5 °F 29.2 °F 36.5 °F 100% 29.63 in 5.0 mi NE 10.4 mph 17.3 mph N/A   Overcast
7:25 AM 36.1 °F 28.7 °F 36.1 °F 100% 29.63 in 4.0 mi NNE 10.4 mph 16.1 mph N/A   Overcast
7:45 AM 35.6 °F 29.9 °F 35.6 °F 100% 29.63 in 3.0 mi NNE 6.9 mph - N/A   Overcast
8:05 AM 35.6 °F 29.2 °F 35.6 °F 100% 29.63 in 5.0 mi NNE 8.1 mph - N/A   Overcast
8:25 AM 35.4 °F 26.8 °F 35.4 °F 100% 29.63 in 1.8 mi NNE 12.7 mph 18.4 mph N/A   Overcast
8:45 AM 34.7 °F 28.8 °F 34.7 °F 100% 29.63 in 1.0 mi North 6.9 mph - N/A   Overcast
9:05 AM 35.6 °F 29.2 °F 35.6 °F 100% 29.63 in 5.0 mi NNE 8.1 mph - N/A   Overcast
9:25 AM 36.3 °F 28.9 °F 36.3 °F 100% 29.63 in 4.0 mi North 10.4 mph 19.6 mph N/A   Overcast
9:45 AM 36.1 °F 28.7 °F 36.1 °F 100% 29.63 in 3.0 mi North 10.4 mph 16.1 mph N/A   Overcast
10:05 AM 36.7 °F 29.4 °F 36.7 °F 100% 29.63 in 4.0 mi NNE 10.4 mph 17.3 mph N/A   Overcast
10:25 AM 36.9 °F 29.1 °F 36.9 °F 100% 29.63 in 4.0 mi North 11.5 mph 19.6 mph N/A   Overcast
10:45 AM 36.7 °F 28.0 °F 36.7 °F 100% 29.63 in 3.0 mi NNE 13.8 mph 21.9 mph N/A   Overcast
11:05 AM 37.0 °F 28.9 °F 37.0 °F 100% 29.63 in 4.0 mi North 12.7 mph 20.7 mph N/A   Overcast
11:25 AM 37.4 °F 28.9 °F 37.4 °F 100% 29.63 in 5.0 mi North 13.8 mph 23.0 mph N/A   Overcast
11:45 AM 37.4 °F 29.8 °F 37.4 °F 100% 29.64 in 5.0 mi North 11.5 mph 23.0 mph N/A   Overcast
12:00 PM 36.5 °F 27.8 °F 36.5 °F 100% 29.64 in 4.0 mi North 13.8 mph 23.0 mph N/A   Overcast
12:25 PM 36.3 °F 26.1 °F 36.3 °F 100% 29.64 in 3.0 mi North 18.4 mph 25.3 mph N/A   Overcast
12:45 PM 37.0 °F 28.1 °F 37.0 °F 100% 29.65 in 5.0 mi North 15.0 mph 24.2 mph N/A   Overcast
1:05 PM 37.6 °F 28.1 °F 37.4 °F 99% 29.64 in 7.0 mi North 17.3 mph 28.8 mph N/A   Overcast
1:25 PM 38.3 °F 28.4 °F 37.4 °F 97% 29.65 in 10.0 mi North 19.6 mph 32.2 mph N/A   Overcast
1:45 PM 38.3 °F 28.1 °F 37.4 °F 97% 29.66 in 7.0 mi North 20.7 mph 28.8 mph N/A   Overcast
2:05 PM 38.7 °F 29.1 °F 37.4 °F 95% 29.67 in 7.0 mi North 18.4 mph 29.9 mph N/A   Overcast
2:25 PM 39.2 °F 30.5 °F 37.8 °F 95% 29.69 in 10.0 mi North 16.1 mph 27.6 mph N/A   Overcast
2:45 PM 39.2 °F 30.5 °F 37.4 °F 93% 29.71 in 10.0 mi North 16.1 mph 31.1 mph N/A   Overcast
3:05 PM 39.2 °F 30.8 °F 37.4 °F 93% 29.73 in 10.0 mi North 15.0 mph 25.3 mph N/A   Overcast
3:25 PM 39.2 °F 29.6 °F 37.4 °F 93% 29.74 in 7.0 mi North 19.6 mph 28.8 mph N/A   Overcast
3:45 PM 39.4 °F 31.1 °F 37.8 °F 94% 29.76 in 10.0 mi North 15.0 mph 31.1 mph N/A   Overcast
4:00 PM 39.4 °F 30.4 °F 37.6 °F 93% 29.77 in 10.0 mi North 17.3 mph 29.9 mph N/A   Overcast
4:25 PM 39.6 °F 31.0 °F 37.9 °F 94% 29.79 in 10.0 mi North 16.1 mph 26.5 mph N/A   Overcast
4:45 PM 39.9 °F 30.5 °F 37.9 °F 93% 29.81 in 10.0 mi North 19.6 mph 33.4 mph N/A   Overcast
5:05 PM 40.3 °F 32.2 °F 37.9 °F 91% 29.83 in 10.0 mi North 15.0 mph 28.8 mph N/A   Overcast
5:25 PM 40.6 °F 32.3 °F 37.8 °F 89% 29.85 in 10.0 mi North 16.1 mph 31.1 mph N/A   Overcast
5:45 PM 40.5 °F 31.5 °F 37.9 °F 91% 29.87 in 10.0 mi North 18.4 mph 25.3 mph N/A   Overcast
6:05 PM 40.6 °F 33.4 °F 38.1 °F 91% 29.88 in 10.0 mi NNW 12.7 mph 21.9 mph N/A   Overcast
6:25 PM 41.0 °F 33.5 °F 37.6 °F 88% 29.90 in 10.0 mi North 13.8 mph 23.0 mph N/A   Overcast
6:45 PM 41.0 °F 33.5 °F 37.2 °F 86% 29.91 in 10.0 mi North 13.8 mph 24.2 mph N/A   Mostly Cloudy
7:05 PM 41.4 °F 34.7 °F 36.9 °F 84% 29.92 in 10.0 mi NNW 11.5 mph 26.5 mph N/A   Mostly Cloudy
7:25 PM 41.9 °F 33.1 °F 36.5 °F 81% 29.93 in 10.0 mi North 19.6 mph 25.3 mph N/A   Overcast
8:05 PM 41.4 °F 34.7 °F 36.3 °F 82% 29.94 in 10.0 mi North 11.5 mph 21.9 mph N/A   Mostly Cloudy
8:25 PM 41.4 °F 36.2 °F 35.6 °F 80% 29.95 in 10.0 mi North 8.1 mph 11.5 mph N/A   Overcast
8:45 PM 41.5 °F 36.4 °F 35.2 °F 78% 29.95 in 10.0 mi NNW 8.1 mph - N/A   Overcast
9:05 PM 41.0 °F 37.1 °F 35.6 °F 81% 29.95 in 10.0 mi NW 5.8 mph - N/A   Scattered Clouds
9:25 PM 40.5 °F 35.8 °F 35.6 °F 83% 29.96 in 10.0 mi NNW 6.9 mph - N/A   Clear
9:45 PM 40.1 °F 35.3 °F 35.2 °F 83% 29.96 in 10.0 mi NNW 6.9 mph - N/A   Clear
10:05 PM 40.1 °F 36.1 °F 35.1 °F 82% 29.96 in 10.0 mi NNW 5.8 mph - N/A   Clear
10:25 PM 40.5 °F 35.8 °F 34.5 °F 79% 29.97 in 10.0 mi NNW 6.9 mph - N/A   Clear
10:45 PM 40.6 °F 35.4 °F 34.0 °F 77% 29.98 in 10.0 mi NNW 8.1 mph - N/A   Clear
11:05 PM 41.0 °F 35.8 °F 34.0 °F 76% 29.98 in 10.0 mi NW 8.1 mph - N/A   Mostly Cloudy
11:25 PM 41.0 °F 35.8 °F 33.8 °F 76% 29.99 in 10.0 mi NNW 8.1 mph - N/A   Overcast
11:45 PM 41.5 °F 37.8 °F 33.6 °F 73% 29.99 in 10.0 mi NNW 5.8 mph - N/A   Overcast